EW5186 Weather Reports


Display with metric or nautical units.
time (UTC)temp
F
wind
direction
speed
MPH
gust
MPH
rain 1hr
in
rain 24hr
in
rain mn
in
humidity
%
barometer
mb
20260901210023 65 13 0.0 5.0 0.00 0.16 0.16 93 1017.3
20260901204503 65 65 3.0 9.0 0.00 0.16 0.16 93 1017.1
20260901203006 65 69 0.0 9.0 0.00 0.16 0.16 93 1016.9
20260901201544 65 300 0.0 7.0 0.00 0.16 0.16 94 1016.8
20260901200052 66 175 2.0 6.0 0.00 0.16 0.16 94 1016.7
20260901194524 66 101 2.0 8.0 0.00 0.16 0.16 94 1016.8
20260901193024 67 206 2.0 5.0 0.00 0.16 0.16 94 1016.5
20260901191502 67 45 0.0 5.0 0.00 0.16 0.16 93 1016.4
20260901190005 68 122 2.0 9.0 0.00 0.16 0.16 92 1016.4
20260901184603 72 88 0.0 1.0 0.00 0.16 0.16 92 1016.1
20260901183051 72 126 0.0 1.0 0.00 0.16 0.16 92 1016.2
20260901181546 72 236 0.0 2.0 0.00 0.16 0.16 93 1016.3
20260901180043 72 85 0.0 1.0 0.00 0.16 0.16 93 1016.5
20260901174542 72 47 0.0 3.0 0.00 0.16 0.16 93 1016.6
20260901173038 72 211 0.0 4.0 0.00 0.16 0.16 93 1016.3
20260901171535 72 84 0.0 2.0 0.00 0.16 0.16 94 1016.2
20260901170034 72 101 0.0 4.0 0.00 0.16 0.16 94 1016.6
20260901164533 72 226 0.0 3.0 0.00 0.16 0.16 94 1016.7
20260901163013 71 105 0.0 3.0 0.00 0.16 0.16 94 1016.9
20260901161512 71 89 0.0 3.0 0.00 0.16 0.16 93 1017.0
20260901160055 72 226 0.0 2.0 0.00 0.16 0.16 94 1017.2
20260901154553 71 138 0.0 2.0 0.01 0.16 0.16 94 1017.3
20260901153042 72 109 0.0 2.0 0.03 0.16 0.16 95 1017.2
20260901151540 71 142 0.0 0.0 0.04 0.16 0.16 94 1017.3
20260901150038 71 131 0.0 3.0 0.04 0.16 0.16 95 1017.3
20260901144535 70 141 0.0 3.0 0.06 0.15 0.15 95 1017.5
20260901143037 70 243 0.0 5.0 0.07 0.13 0.13 95 1017.7
20260901141539 70 70 0.0 1.0 0.06 0.12 0.12 95 1017.6
20260901140031 69 83 0.0 1.0 0.06 0.12 0.12 95 1017.8
20260901134530 69 96 0.0 0.0 0.03 0.09 0.09 95 1017.8
20260901133011 69 96 0.0 2.0 0.00 0.06 0.06 95 1017.8
20260901131521 69 331 0.0 1.0 0.00 0.06 0.06 95 1017.7
20260901130059 69 72 0.0 2.0 0.01 0.06 0.06 95 1017.8
20260901124558 69 72 0.0 4.0 0.01 0.06 0.06 96 1017.9
20260901123104 69 136 0.0 4.0 0.01 0.06 0.06 96 1017.8
20260901121556 68 269 0.0 1.0 0.01 0.06 0.06 96 1017.8
20260901120057 68 130 0.0 1.0 0.00 0.06 0.05 96 1017.8
20260901114556 68 170 0.0 3.0 0.00 0.06 0.05 96 1017.8
20260901113102 68 131 0.0 1.0 0.00 0.06 0.05 96 1017.7
20260901111554 68 224 0.0 1.0 0.00 0.06 0.05 96 1017.8
20260901110036 68 203 0.0 1.0 0.00 0.06 0.05 96 1017.8
20260901104535 68 91 0.0 1.0 0.00 0.06 0.05 96 1017.7
20260901103025 68 199 0.0 1.0 0.00 0.06 0.05 95 1017.6
20260901101525 68 103 0.0 1.0 0.00 0.06 0.05 95 1017.7
20260901100023 67 148 0.0 0.0 0.01 0.06 0.05 95 1017.6
20260901094523 67 150 0.0 0.0 0.02 0.06 0.05 95 1017.7
20260901093021 67 211 0.0 3.0 0.03 0.06 0.05 95 1017.5
20260901091520 67 113 0.0 3.0 0.03 0.06 0.05 95 1017.8
20260901090017 67 34 0.0 2.0 0.02 0.05 0.04 95 1017.9
20260901084515 67 192 0.0 0.0 0.01 0.04 0.03 94 1018.2
20260901083057 68 69 0.0 1.0 0.01 0.03 0.02 94 1018.2
20260901081556 68 69 0.0 1.0 0.01 0.03 0.02 94 1018.4
20260901080039 68 103 0.0 2.0 0.01 0.03 0.02 94 1018.3
20260901074540 68 72 0.0 0.0 0.02 0.03 0.02 94 1018.4
20260901073018 68 72 0.0 0.0 0.01 0.02 0.01 93 1018.5
20260901071518 68 72 0.0 0.0 0.01 0.02 0.01 93 1018.5
20260901070106 68 72 0.0 0.0 0.01 0.02 0.01 93 1018.5
20260901064557 68 72 0.0 1.0 0.00 0.01 0.00 93 1018.6
20260901063039 68 72 0.0 1.0 0.00 0.01 0.00 92 1018.7
20260901061536 68 72 0.0 1.0 0.00 0.01 0.00 92 1018.8
20260901060024 68 72 0.0 0.0 0.00 0.01 0.00 91 1018.8
20260901054523 68 72 0.0 1.0 0.00 0.01 0.00 90 1018.9
20260901053021 68 72 0.0 1.0 0.00 0.01 0.00 90 1019.1
20260901051521 68 72 0.0 0.0 0.00 0.01 0.00 90 1019.1
20260901050021 68 72 0.0 1.0 0.00 0.01 0.00 90 1019.2
20260901044519 69 72 0.0 0.0 0.00 0.01 0.00 89 1019.5
20260901043021 69 72 0.0 0.0 0.00 0.01 0.00 89 1019.5
20260901041516 69 72 0.0 1.0 0.00 0.01 0.00 88 1019.4
20260901040107 68 77 0.0 0.0 0.00 0.01 0.01 89 1019.5
20260901034607 68 75 0.0 1.0 0.00 0.01 0.01 88 1019.4
20260901033037 68 136 0.0 0.0 0.00 0.01 0.01 88 1019.6
20260901031538 69 136 0.0 0.0 0.00 0.01 0.01 87 1019.8
20260901030019 69 136 0.0 0.0 0.00 0.01 0.01 87 1019.8
20260901024519 69 136 0.0 0.0 0.00 0.01 0.01 86 1019.8
20260901023007 69 200 0.0 1.0 0.00 0.01 0.01 86 1019.8
20260901021503 69 84 0.0 0.0 0.00 0.01 0.01 86 1019.7
20260901020045 69 79 0.0 1.0 0.00 0.01 0.01 86 1019.9
20260901014543 69 122 0.0 0.0 0.00 0.01 0.01 86 1020.3
20260901013033 69 117 0.0 1.0 0.00 0.01 0.01 85 1020.2
20260901011532 69 105 0.0 1.0 0.00 0.01 0.01 85 1020.1
20260901010031 69 105 0.0 0.0 0.00 0.01 0.01 85 1020.0
20260901004531 69 170 0.0 1.0 0.00 0.01 0.01 84 1020.0
20260901003030 69 168 0.0 1.0 0.00 0.01 0.01 84 1019.8
20260901001530 69 78 0.0 0.0 0.00 0.01 0.01 83 1019.9
20260901000029 69 78 0.0 1.0 0.00 0.01 0.01 82 1019.8
20260831234532 69 100 0.0 1.0 0.00 0.01 0.01 81 1020.0
20260831233014 70 169 0.0 0.0 0.00 0.01 0.01 80 1020.1
20260831231523 70 149 0.0 1.0 0.00 0.01 0.01 79 1020.2
20260831230051 70 214 0.0 2.0 0.00 0.01 0.01 78 1020.3
20260831224550 71 145 0.0 1.0 0.00 0.01 0.01 77 1020.4
20260831223037 71 198 0.0 3.0 0.00 0.01 0.01 77 1020.4
20260831221533 71 108 0.0 2.0 0.00 0.01 0.01 77 1020.3
20260831220014 72 200 0.0 3.0 0.00 0.01 0.01 79 1020.3
20260831214512 72 228 0.0 5.0 0.00 0.01 0.01 79 1020.4
20260831213058 73 124 0.0 5.0 0.00 0.01 0.01 78 1020.5
20260831211555 73 67 0.0 3.0 0.00 0.01 0.01 77 1020.3